Location: Alsip
(41.6689°N, 87.7387°W)
Time: 13:42:42
(UTC+00:00)

Cosmos 1140 Rocket - Pass Details

Date: 14 July 2020
Orbit: 744 x 768 km, 74.1° (Epoch: 04 August)

Event Time Altitude Azimuth Distance (km) Brightness Sun altitude
Exits shadow 07:32:13 56° 175° (S) 899 3.5 -23.0°
Maximum altitude 07:33:16 76° 107° (ESE) 787 3.5 -22.9°
Drops below altitude 10° 07:38:30 10° 23° (NNE) 2,309 7.1 -22.5°
Sets 07:40:54 0° 22° (NNE) 3,241 8.2 -22.3°
